• In United Kingdom
  • List of Countries
  • For 7 days
  • Water Temperature
  • Satellite Maps
  • Weather Map
  • Weather Widgets
  • user-avatar
    Login

    Hourly Weather Klagenfurt

    Today, 23 August, Wednesday

    Time Temperature Precipitation Wind Pressure Humidity
    00:00 +11°C° 0 mm 1 mps 691 mmHg 82%
    01:00 +10°C° 0 mm 1 mps 691 mmHg 83%
    02:00 +10°C° 0 mm 1 mps 691 mmHg 84%
    03:00 +10°C° 0 mm 1 mps 691 mmHg 84%
    04:00 +10°C° 0 mm 1 mps 691 mmHg 85%
    05:00 +11°C° 0 mm 1 mps 691 mmHg 81%
    06:00 +11°C° 0 mm 0 mps 692 mmHg 76%
    07:00 +13°C° 0 mm 0 mps 692 mmHg 72%
    08:00 +16°C° 0 mm 1 mps 693 mmHg 64%
    09:00 +20°C° 0 mm 1 mps 693 mmHg 55%
    10:00 +22°C° 0 mm 1 mps 694 mmHg 47%
    11:00 +23°C° 0 mm 1 mps 694 mmHg 45%
    12:00 +24°C° 0 mm 1 mps 694 mmHg 44%
    13:00 +25°C° 0 mm 1 mps 694 mmHg 43%
    14:00 +24°C° 0 mm 1 mps 693 mmHg 45%
    15:00 +24°C° 0 mm 1 mps 693 mmHg 46%
    16:00 +24°C° 0 mm 1 mps 693 mmHg 48%
    17:00 +22°C° 0 mm 1 mps 692 mmHg 57%
    18:00 +20°C° 0 mm 1 mps 692 mmHg 66%
    19:00 +18°C° 0 mm 1 mps 692 mmHg 75%
    20:00 +16°C° 0 mm 1 mps 692 mmHg 77%
    21:00 +15°C° 0 mm 1 mps 692 mmHg 79%
    22:00 +14°C° 0 mm 1 mps 692 mmHg 82%
    23:00 +14°C° 0 mm 1 mps 692 mmHg 83%

    Tomorrow, 24 August, Thursday

    Time Temperature Precipitation Wind Pressure Humidity
    00:00 +14°C° 0 mm 1 mps 692 mmHg 85%
    01:00 +13°C° 0 mm 1 mps 692 mmHg 86%
    02:00 +13°C° 0 mm 1 mps 692 mmHg 86%
    03:00 +13°C° 0 mm 1 mps 692 mmHg 87%
    04:00 +13°C° 0 mm 1 mps 692 mmHg 87%
    05:00 +14°C° 0 mm 1 mps 692 mmHg 83%
    06:00 +15°C° 0 mm 1 mps 692 mmHg 79%
    07:00 +15°C° 0 mm 0 mps 693 mmHg 75%
    08:00 +20°C° 0 mm 1 mps 693 mmHg 65%
    09:00 +23°C° 0 mm 1 mps 694 mmHg 56%
    10:00 +26°C° 0 mm 1 mps 695 mmHg 46%
    11:00 +27°C° 0 mm 1 mps 695 mmHg 44%
    12:00 +28°C° 0 mm 1 mps 695 mmHg 42%
    13:00 +29°C° 0 mm 1 mps 694 mmHg 39%
    14:00 +28°C° 0 mm 2 mps 694 mmHg 41%
    15:00 +28°C° 0 mm 2 mps 694 mmHg 43%
    16:00 +27°C° 0 mm 2 mps 693 mmHg 45%
    17:00 +25°C° 0.1 mm 1 mps 693 mmHg 56%
    18:00 +22°C° 0.1 mm 1 mps 693 mmHg 67%
    19:00 +20°C° 0.1 mm 1 mps 693 mmHg 78%
    20:00 +19°C° 0.2 mm 1 mps 693 mmHg 80%
    21:00 +18°C° 0.2 mm 1 mps 693 mmHg 82%
    22:00 +16°C° 0.2 mm 1 mps 693 mmHg 85%
    23:00 +16°C° 0 mm 1 mps 693 mmHg 85%

    Day after tomorrow, 25 August, Friday

    Time Temperature Precipitation Wind Pressure Humidity
    00:00 +15°C° 0 mm 1 mps 693 mmHg 86%
    01:00 +15°C° 0 mm 1 mps 693 mmHg 87%
    02:00 +15°C° 0 mm 1 mps 693 mmHg 86%
    03:00 +15°C° 0 mm 1 mps 692 mmHg 86%
    04:00 +15°C° 0 mm 1 mps 692 mmHg 86%
    05:00 +16°C° 0 mm 1 mps 693 mmHg 83%
    06:00 +18°C° 0 mm 1 mps 693 mmHg 79%
    07:00 +17°C° 0 mm 0 mps 693 mmHg 76%
    08:00 +22°C° 0 mm 1 mps 694 mmHg 66%
    09:00 +25°C° 0 mm 1 mps 694 mmHg 56%
    10:00 +27°C° 0 mm 1 mps 695 mmHg 47%
    11:00 +28°C° 0 mm 1 mps 695 mmHg 44%
    12:00 +29°C° 0 mm 1 mps 695 mmHg 42%
    13:00 +30°C° 0 mm 1 mps 695 mmHg 39%
    14:00 +29°C° 0 mm 1 mps 694 mmHg 41%
    15:00 +29°C° 0 mm 1 mps 694 mmHg 42%
    16:00 +28°C° 0 mm 1 mps 694 mmHg 44%
    17:00 +26°C° 0 mm 1 mps 693 mmHg 54%
    18:00 +23°C° 0 mm 1 mps 693 mmHg 64%
    19:00 +21°C° 0 mm 1 mps 693 mmHg 74%
    20:00 +20°C° 0 mm 1 mps 693 mmHg 76%
    21:00 +19°C° 0 mm 1 mps 693 mmHg 79%
    22:00 +19°C° 0 mm 1 mps 693 mmHg 81%
    23:00 +18°C° 0 mm 1 mps 693 mmHg 82%

    26 August, Saturday

    Time Temperature Precipitation Wind Pressure Humidity
    00:00 +18°C° 0 mm 1 mps 692 mmHg 83%
    01:00 +16°C° 0 mm 1 mps 692 mmHg 84%
    02:00 +16°C° 0 mm 1 mps 692 mmHg 85%
    03:00 +16°C° 0 mm 1 mps 692 mmHg 86%
    04:00 +15°C° 0 mm 1 mps 692 mmHg 86%
    05:00 +18°C° 0 mm 1 mps 692 mmHg 82%
    06:00 +19°C° 0 mm 1 mps 692 mmHg 78%
    07:00 +18°C° 0 mm 0 mps 693 mmHg 75%
    08:00 +21°C° 0 mm 0 mps 693 mmHg 64%
    09:00 +24°C° 0 mm 0 mps 694 mmHg 54%
    10:00 +27°C° 0 mm 0 mps 694 mmHg 44%
    11:00 +30°C° 0 mm 1 mps 694 mmHg 41%
    12:00 +31°C° 0 mm 1 mps 694 mmHg 38%
    13:00 +31°C° 0 mm 1 mps 694 mmHg 35%
    14:00 +31°C° 0 mm 1 mps 694 mmHg 37%
    15:00 +30°C° 0 mm 1 mps 693 mmHg 39%
    16:00 +30°C° 0 mm 1 mps 693 mmHg 41%
    17:00 +27°C° 0 mm 1 mps 693 mmHg 51%
    18:00 +24°C° 0 mm 1 mps 692 mmHg 61%
    19:00 +22°C° 0 mm 1 mps 692 mmHg 71%
    20:00 +21°C° 0 mm 1 mps 692 mmHg 74%
    21:00 +20°C° 0 mm 1 mps 692 mmHg 77%
    22:00 +19°C° 0 mm 1 mps 692 mmHg 80%
    23:00 +19°C° 0 mm 1 mps 692 mmHg 82%

    27 August, Sunday

    Time Temperature Precipitation Wind Pressure Humidity
    00:00 +18°C° 0 mm 1 mps 692 mmHg 83%
    01:00 +18°C° 0 mm 1 mps 691 mmHg 85%
    02:00 +18°C° 0 mm 1 mps 691 mmHg 85%
    03:00 +16°C° 0 mm 1 mps 691 mmHg 85%
    04:00 +16°C° 0 mm 1 mps 691 mmHg 86%
    05:00 +18°C° 0 mm 1 mps 691 mmHg 82%
    06:00 +19°C° 0 mm 1 mps 691 mmHg 78%
    07:00 +20°C° 0 mm 1 mps 692 mmHg 75%
    08:00 +23°C° 0 mm 1 mps 692 mmHg 64%
    09:00 +26°C° 0 mm 1 mps 693 mmHg 54%
    10:00 +29°C° 0 mm 1 mps 693 mmHg 44%
    11:00 +30°C° 0 mm 1 mps 693 mmHg 41%
    12:00 +31°C° 0 mm 1 mps 693 mmHg 38%
    13:00 +32°C° 0 mm 1 mps 693 mmHg 35%
    14:00 +31°C° 0 mm 1 mps 692 mmHg 37%
    15:00 +31°C° 0 mm 1 mps 692 mmHg 39%
    16:00 +30°C° 0 mm 1 mps 692 mmHg 41%
    17:00 +27°C° 0.1 mm 1 mps 691 mmHg 52%
    18:00 +25°C° 0.1 mm 1 mps 691 mmHg 62%
    19:00 +22°C° 0.1 mm 1 mps 690 mmHg 72%
    20:00 +22°C° 0.1 mm 1 mps 691 mmHg 74%
    21:00 +21°C° 0.1 mm 1 mps 691 mmHg 76%
    22:00 +21°C° 0.1 mm 1 mps 691 mmHg 78%
    23:00 +20°C° 0.1 mm 1 mps 690 mmHg 79%

    28 August, Monday

    Time Temperature Precipitation Wind Pressure Humidity
    00:00 +20°C° 0.1 mm 1 mps 690 mmHg 80%
    01:00 +19°C° 0.1 mm 1 mps 690 mmHg 82%
    02:00 +19°C° 0.1 mm 1 mps 690 mmHg 83%
    03:00 +18°C° 0.1 mm 1 mps 690 mmHg 84%
    04:00 +18°C° 0.1 mm 1 mps 690 mmHg 85%
    05:00 +19°C° 0.2 mm 1 mps 690 mmHg 82%
    06:00 +20°C° 0.2 mm 1 mps 691 mmHg 80%
    07:00 +21°C° 0.2 mm 1 mps 691 mmHg 77%
    08:00 +23°C° 0.1 mm 1 mps 692 mmHg 68%
    09:00 +25°C° 0.1 mm 1 mps 692 mmHg 60%
    10:00 +28°C° 0.1 mm 1 mps 693 mmHg 51%
    11:00 +29°C° 0.1 mm 1 mps 693 mmHg 48%
    12:00 +29°C° 0.1 mm 1 mps 693 mmHg 45%
    13:00 +30°C° 0.1 mm 1 mps 693 mmHg 42%
    14:00 +30°C° 0 mm 1 mps 692 mmHg 43%
    15:00 +29°C° 0 mm 1 mps 692 mmHg 44%
    16:00 +29°C° 0 mm 1 mps 692 mmHg 45%
    17:00 +27°C° 0 mm 1 mps 692 mmHg 53%
    18:00 +22°C° 0 mm 0 mps 691 mmHg 61%
    19:00 +20°C° 0 mm 0 mps 691 mmHg 70%
    20:00 +19°C° 0 mm 0 mps 691 mmHg 72%
    21:00 +20°C° 0 mm 1 mps 691 mmHg 74%
    22:00 +19°C° 0 mm 1 mps 692 mmHg 75%
    23:00 +19°C° 0 mm 1 mps 692 mmHg 76%
    Show more